OK2ZI Weather Reports


time (UTC)temp
F
wind
direction
speed
knots
gust
knots
rain 1hr
in
rain 24hr
in
rain mn
in
humidity
%
barometer
mb
20260507185606 52 267 7.0 7.0 0.00 0.00 0.00 76 1011.0
20260507185407 51 264 4.3 4.3 0.00 0.00 0.00 75 1010.0
20260507185206 51 264 6.1 6.1 0.00 0.00 0.00 76 1010.0
20260507185010 51 267 5.2 5.2 0.00 0.00 0.00 76 1010.0
20260507184807 51 267 6.1 6.1 0.00 0.00 0.00 78 1010.0
20260507184607 51 268 7.8 7.8 0.00 0.00 0.00 79 1010.0
20260507184407 51 268 0.0 0.0 0.00 0.00 0.00 80 1010.0
20260507184207 50 268 0.0 0.0 0.00 0.00 0.00 80 1010.0
20260507184013 50 268 4.3 4.3 0.00 0.00 0.00 81 1010.0
20260507183807 50 268 0.0 0.0 0.00 0.00 0.00 80 1010.0
20260507183206 50 268 0.0 0.0 0.00 0.00 0.00 80 1010.0
20260507183014 51 268 5.2 5.2 0.00 0.00 0.00 80 1010.0
20260507182609 51 268 0.0 0.0 0.00 0.00 0.00 80 1010.0
20260507182407 51 268 0.0 0.0 0.00 0.00 0.00 80 1010.0
20260507182206 51 268 0.0 0.0 0.00 0.00 0.00 80 1010.0
20260507182012 51 268 0.0 0.0 0.00 0.00 0.00 80 1010.0
20260507181807 51 268 0.0 0.0 0.00 0.00 0.00 80 1010.0
20260507181610 52 268 4.3 4.3 0.00 0.00 0.00 79 1010.0
20260507181211 52 268 0.0 0.0 0.00 0.00 0.00 78 1010.0
20260507181013 53 268 0.0 0.0 0.00 0.00 0.00 77 1010.0
20260507180808 53 268 0.0 0.0 0.00 0.00 0.00 77 1010.0
20260507180608 53 268 5.2 5.2 0.00 0.00 0.00 77 1010.0
20260507180408 53 268 4.3 4.3 0.00 0.00 0.00 77 1010.0
20260507180208 54 268 5.2 5.2 0.00 0.00 0.00 76 1010.0
20260507180036 54 268 0.0 0.0 0.00 0.00 0.00 75 1010.0
20260507175607 55 268 0.0 0.0 0.00 0.00 0.00 72 1010.0
20260507175207 56 268 5.2 5.2 0.00 0.00 0.00 69 1010.0
20260507174607 56 268 0.0 0.0 0.00 0.00 0.00 67 1010.0
20260507174408 57 268 7.0 7.0 0.00 0.00 0.00 66 1010.0
20260507174207 57 268 6.1 6.1 0.00 0.00 0.00 66 1010.0
20260507174018 57 268 5.2 5.2 0.00 0.00 0.00 66 1009.0
20260507173808 57 268 4.3 4.3 0.00 0.00 0.00 66 1009.0
20260507173608 57 268 0.0 0.0 0.00 0.00 0.00 65 1009.0
20260507173408 57 268 5.2 5.2 0.00 0.00 0.00 64 1010.0
20260507173207 58 268 6.1 6.1 0.00 0.00 0.00 64 1010.0
20260507173024 58 268 4.3 4.3 0.00 0.00 0.00 63 1009.0
20260507172808 58 268 5.2 5.2 0.00 0.00 0.00 63 1009.0
20260507172607 58 268 7.0 7.0 0.00 0.00 0.00 61 1009.0
20260507172207 58 268 0.0 0.0 0.00 0.00 0.00 60 1010.0
20260507172015 58 268 0.0 0.0 0.00 0.00 0.00 59 1009.0
20260507171607 58 268 5.2 5.2 0.00 0.00 0.00 58 1009.0
20260507171406 58 268 7.0 7.0 0.00 0.00 0.00 57 1009.0
20260507171011 58 280 12.2 12.2 0.00 0.00 0.00 56 1009.0
20260507170806 58 269 7.0 7.0 0.00 0.00 0.00 57 1009.0
20260507170607 58 270 12.2 12.2 0.00 0.00 0.00 57 1009.0
20260507170206 59 269 7.0 7.0 0.00 0.00 0.00 55 1009.0
20260507170019 59 274 13.0 13.0 0.00 0.00 0.00 55 1009.0
20260507165807 59 276 7.8 7.8 0.00 0.00 0.00 55 1009.0
20260507165606 59 276 16.5 17.4 0.00 0.00 0.00 54 1009.0
20260507165407 60 276 13.0 13.0 0.00 0.00 0.00 53 1009.0
20260507165011 61 276 12.2 12.2 0.00 0.00 0.00 51 1009.0
20260507164806 62 263 6.1 6.1 0.00 0.00 0.00 49 1009.0
20260507164606 62 222 12.2 12.2 0.00 0.00 0.00 49 1009.0
20260507164407 62 228 16.5 17.4 0.00 0.00 0.00 50 1009.0
20260507164207 62 288 13.0 13.0 0.00 0.00 0.00 49 1009.0
20260507164015 63 234 12.2 12.2 0.00 0.00 0.00 48 1009.0
20260507163806 63 306 14.8 15.6 0.00 0.00 0.00 48 1009.0
20260507163406 64 282 12.2 12.2 0.00 0.00 0.00 47 1009.0
20260507163207 63 276 15.6 16.5 0.00 0.00 0.00 47 1009.0
20260507163018 63 241 7.8 7.8 0.00 0.00 0.00 48 1009.0
20260507162807 63 258 14.8 15.6 0.00 0.00 0.00 45 1009.0
20260507162407 63 252 7.8 7.8 0.00 0.00 0.00 47 1009.0
20260507162206 63 263 19.1 20.0 0.00 0.00 0.00 48 1009.0
20260507162011 62 237 17.4 19.1 0.00 0.00 0.00 48 1009.0
20260507161606 62 218 7.0 7.0 0.00 0.00 0.00 50 1009.0
20260507161407 62 264 13.0 13.0 0.00 0.00 0.00 49 1009.0
20260507161207 62 275 13.9 14.8 0.00 0.00 0.00 51 1009.0
20260507160806 63 253 14.8 15.6 0.00 0.00 0.00 51 1009.0
20260507160606 63 273 12.2 12.2 0.00 0.00 0.00 52 1009.0
20260507160407 63 240 7.0 7.0 0.00 0.00 0.00 51 1009.0
20260507160207 63 228 7.0 7.0 0.00 0.00 0.00 50 1009.0
20260507160019 63 242 15.6 16.5 0.00 0.00 0.00 50 1009.0
20260507155806 63 229 12.2 12.2 0.00 0.00 0.00 50 1009.0
20260507155606 63 234 6.1 6.1 0.00 0.00 0.00 51 1009.0
20260507155406 63 292 15.6 16.5 0.00 0.00 0.00 51 1009.0
20260507155206 63 276 20.0 21.7 0.00 0.00 0.00 51 1009.0
20260507155011 63 258 17.4 18.2 0.00 0.00 0.00 51 1009.0
20260507154806 63 240 21.7 26.1 0.00 0.00 0.00 52 1009.0
20260507154607 63 276 14.8 15.6 0.00 0.00 0.00 50 1009.0
20260507154207 64 264 19.1 20.0 0.00 0.00 0.00 50 1009.0
20260507154011 64 237 7.8 7.8 0.00 0.00 0.00 50 1009.0
20260507153824 64 298 35.6 40.0 0.00 0.00 0.00 52 1009.0
20260507153606 64 296 16.5 17.4 0.00 0.00 0.00 53 1009.0
20260507153406 64 279 14.8 15.6 0.00 0.00 0.00 51 1009.0
20260507153016 64 270 14.8 15.6 0.00 0.00 0.00 52 1009.0
20260507152807 64 276 24.3 24.3 0.00 0.00 0.00 51 1009.0
20260507152607 64 282 19.1 20.9 0.00 0.00 0.00 52 1009.0
20260507152406 64 267 17.4 19.1 0.00 0.00 0.00 52 1009.0
20260507152206 63 276 12.2 12.2 0.00 0.00 0.00 52 1009.0
20260507152011 63 269 7.0 7.0 0.00 0.00 0.00 51 1009.0
20260507151806 63 287 13.0 13.0 0.00 0.00 0.00 52 1009.0
20260507151606 63 272 14.8 15.6 0.00 0.00 0.00 54 1009.0
20260507151406 63 287 19.1 21.7 0.00 0.00 0.00 53 1009.0
20260507151011 64 291 20.9 20.9 0.00 0.00 0.00 51 1009.0
20260507150806 64 306 24.3 24.3 0.00 0.00 0.00 49 1009.0
20260507150606 65 289 28.7 33.0 0.00 0.00 0.00 48 1009.0
20260507150407 65 274 19.1 20.9 0.00 0.00 0.00 48 1009.0
20260507150019 65 277 15.6 16.5 0.00 0.00 0.00 49 1009.0
20260507145807 64 308 17.4 19.1 0.00 0.00 0.00 49 1009.0
20260507145606 64 288 12.2 12.2 0.00 0.00 0.00 50 1009.0
20260507145406 63 288 15.6 16.5 0.00 0.00 0.00 50 1009.0
20260507145206 63 293 18.2 19.1 0.00 0.00 0.00 53 1009.0
20260507145010 63 265 25.2 26.1 0.00 0.00 0.00 53 1009.0
20260507144407 65 288 20.9 24.3 0.00 0.00 0.00 51 1009.0
20260507144206 66 295 15.6 17.4 0.00 0.00 0.00 50 1009.0
20260507143807 67 288 13.9 14.8 0.00 0.00 0.00 46 1009.0
20260507143607 67 287 7.8 7.8 0.00 0.00 0.00 45 1009.0
20260507143407 67 286 26.1 26.9 0.00 0.00 0.00 45 1009.0
20260507143207 67 270 19.1 20.0 0.00 0.00 0.00 46 1009.0
20260507142806 65 293 19.1 20.0 0.00 0.00 0.00 49 1009.0
20260507142406 65 278 13.9 14.8 0.00 0.00 0.00 53 1009.0
20260507142206 65 285 16.5 17.4 0.00 0.00 0.00 51 1009.0
20260507142016 65 270 7.0 7.0 0.00 0.00 0.00 50 1009.0
20260507141806 64 269 4.3 4.3 0.00 0.00 0.00 52 1009.0
20260507141606 63 270 12.2 12.2 0.00 0.00 0.00 54 1009.0
20260507141407 63 258 15.6 16.5 0.00 0.00 0.00 57 1009.0
20260507141207 63 264 13.0 14.8 0.00 0.00 0.00 57 1009.0
20260507141010 64 254 12.2 12.2 0.00 0.00 0.00 54 1009.0
20260507140806 64 186 5.2 5.2 0.00 0.00 0.00 56 1009.0
20260507140409 64 243 7.0 7.0 0.00 0.00 0.00 55 1009.0
20260507140205 64 246 0.0 0.0 0.00 0.00 0.00 55 1009.0
20260507140022 64 246 0.0 0.0 0.00 0.00 0.00 55 1009.0
20260507135806 64 246 0.0 0.0 0.00 0.00 0.00 53 1009.0
20260507135606 64 246 6.1 6.1 0.00 0.00 0.00 50 1009.0
20260507135407 64 236 7.0 7.0 0.00 0.00 0.00 48 1009.0
20260507135207 65 186 13.0 13.0 0.00 0.00 0.00 48 1009.0
20260507135011 65 210 12.2 12.2 0.00 0.00 0.00 50 1009.0
20260507134807 65 174 12.2 12.2 0.00 0.00 0.00 49 1009.0
20260507134606 65 174 13.0 13.0 0.00 0.00 0.00 44 1009.0
20260507134406 65 180 12.2 12.2 0.00 0.00 0.00 44 1009.0
20260507134010 66 173 13.9 14.8 0.00 0.00 0.00 46 1009.0
20260507133806 66 192 7.0 7.0 0.00 0.00 0.00 45 1009.0
20260507133606 66 204 12.2 12.2 0.00 0.00 0.00 44 1009.0
20260507133407 66 168 7.8 7.8 0.00 0.00 0.00 44 1009.0
20260507133207 66 168 12.2 12.2 0.00 0.00 0.00 44 1009.0
20260507133014 66 174 13.9 14.8 0.00 0.00 0.00 43 1009.0
20260507132605 65 192 19.1 20.0 0.00 0.00 0.00 44 1009.0
20260507132407 64 180 13.9 14.8 0.00 0.00 0.00 46 1009.0
20260507132207 64 179 7.8 7.8 0.00 0.00 0.00 46 1009.0
20260507132012 64 173 7.8 7.8 0.00 0.00 0.00 48 1009.0
20260507131607 64 179 17.4 19.1 0.00 0.00 0.00 51 1009.0
20260507131406 64 192 17.4 19.1 0.00 0.00 0.00 52 1009.0
20260507131205 65 168 12.2 12.2 0.00 0.00 0.00 52 1009.0
20260507131016 65 162 16.5 17.4 0.00 0.00 0.00 45 1009.0
20260507130807 66 174 7.8 7.8 0.00 0.00 0.00 44 1009.0
20260507130606 66 186 7.8 7.8 0.00 0.00 0.00 44 1009.0
20260507130208 66 186 7.8 7.8 0.00 0.00 0.00 44 1009.0
20260507130019 65 185 12.2 12.2 0.00 0.00 0.00 44 1009.0
20260507125805 65 185 12.2 12.2 0.00 0.00 0.00 44 1009.0
20260507125605 65 184 12.2 12.2 0.00 0.00 0.00 48 1009.0
20260507125406 65 239 15.6 16.5 0.00 0.00 0.00 47 1009.0
20260507124807 67 264 16.5 17.4 0.00 0.00 0.00 43 1009.0
20260507124405 69 282 13.9 14.8 0.00 0.00 0.00 42 1009.0
20260507124009 67 198 7.8 7.8 0.00 0.00 0.00 44 1009.0
20260507123805 67 224 7.8 7.8 0.00 0.00 0.00 44 1009.0
20260507123606 68 174 14.8 15.6 0.00 0.00 0.00 42 1009.0
20260507123405 69 256 18.2 19.1 0.00 0.00 0.00 43 1009.0
20260507123207 70 196 13.9 14.8 0.00 0.00 0.00 40 1009.0
20260507122807 69 192 26.9 27.8 0.00 0.00 0.00 40 1009.0
20260507122607 68 179 19.1 21.7 0.00 0.00 0.00 42 1009.0
20260507122405 67 216 14.8 15.6 0.00 0.00 0.00 46 1009.0
20260507122206 67 218 13.0 13.0 0.00 0.00 0.00 42 1009.0
20260507122011 67 216 13.0 13.0 0.00 0.00 0.00 44 1009.0
20260507121806 67 229 13.0 14.8 0.00 0.00 0.00 46 1009.0
20260507121606 67 186 12.2 12.2 0.00 0.00 0.00 46 1009.0
20260507121407 67 185 16.5 17.4 0.00 0.00 0.00 44 1009.0
20260507121011 67 168 20.0 22.6 0.00 0.00 0.00 43 1009.0
20260507120806 68 174 20.0 21.7 0.00 0.00 0.00 42 1009.0
20260507120605 68 180 13.9 14.8 0.00 0.00 0.00 44 1009.0
20260507120406 69 216 12.2 12.2 0.00 0.00 0.00 43 1009.0
20260507120021 68 174 13.9 14.8 0.00 0.00 0.00 42 1009.0
20260507115806 68 168 16.5 17.4 0.00 0.00 0.00 42 1009.0
20260507115407 69 186 24.3 26.9 0.00 0.00 0.00 41 1009.0
20260507115206 70 186 29.5 38.2 0.00 0.00 0.00 41 1009.0
20260507115008 70 198 15.6 16.5 0.00 0.00 0.00 40 1009.0
20260507114807 70 186 37.4 42.6 0.00 0.00 0.00 40 1009.0
20260507114606 69 162 17.4 19.1 0.00 0.00 0.00 41 1009.0
20260507114407 69 253 20.0 21.7 0.00 0.00 0.00 43 1009.0
20260507114015 69 168 17.4 19.1 0.00 0.00 0.00 41 1009.0
20260507113812 69 174 7.8 7.8 0.00 0.00 0.00 40 1009.0
20260507113607 70 174 17.4 19.1 0.00 0.00 0.00 40 1009.0
20260507113405 70 180 7.0 7.0 0.00 0.00 0.00 40 1009.0
20260507113016 68 223 7.8 7.8 0.00 0.00 0.00 42 1009.0
20260507112806 67 228 12.2 12.2 0.00 0.00 0.00 46 1009.0
20260507112606 67 162 15.6 16.5 0.00 0.00 0.00 44 1009.0
20260507112407 67 162 0.0 0.0 0.00 0.00 0.00 44 1009.0
20260507112206 67 179 7.8 7.8 0.00 0.00 0.00 45 1009.0
20260507112012 68 234 18.2 19.1 0.00 0.00 0.00 43 1009.0
20260507111807 68 190 19.1 20.9 0.00 0.00 0.00 44 1009.0
20260507111606 68 186 19.1 20.9 0.00 0.00 0.00 43 1009.0
20260507111407 69 173 35.6 40.0 0.00 0.00 0.00 41 1009.0
20260507111207 69 166 13.9 14.8 0.00 0.00 0.00 43 1009.0
20260507111011 69 174 13.0 13.0 0.00 0.00 0.00 42 1009.0
20260507110807 69 198 33.9 37.4 0.00 0.00 0.00 40 1009.0
20260507110607 68 214 12.2 12.2 0.00 0.00 0.00 43 1009.0
20260507110407 68 186 14.8 15.6 0.00 0.00 0.00 43 1009.0
20260507110017 67 168 20.9 20.9 0.00 0.00 0.00 43 1009.0
20260507105807 69 173 25.2 26.9 0.00 0.00 0.00 42 1009.0
20260507105615 69 204 19.1 20.0 0.00 0.00 0.00 40 1009.0
20260507105011 68 210 15.6 16.5 0.00 0.00 0.00 43 1009.0
20260507104607 69 156 17.4 19.1 0.00 0.00 0.00 44 1009.0
20260507104405 69 202 15.6 16.5 0.00 0.00 0.00 44 1009.0
20260507104207 69 196 13.9 14.8 0.00 0.00 0.00 44 1009.0
20260507104012 69 215 17.4 19.1 0.00 0.00 0.00 44 1009.0
20260507103807 68 196 17.4 19.1 0.00 0.00 0.00 46 1009.0
20260507103407 67 208 7.8 7.8 0.00 0.00 0.00 47 1009.0
20260507103207 66 216 13.9 14.8 0.00 0.00 0.00 45 1009.0
20260507103035 66 173 7.8 7.8 0.00 0.00 0.00 50 1009.0
20260507102808 66 210 12.2 12.2 0.00 0.00 0.00 47 1009.0
20260507102610 67 267 20.0 22.6 0.00 0.00 0.00 48 1009.0
20260507102207 67 192 7.8 7.8 0.00 0.00 0.00 46 1009.0
20260507102012 68 184 7.8 7.8 0.00 0.00 0.00 45 1009.0
20260507101806 67 216 7.0 7.0 0.00 0.00 0.00 49 1009.0
20260507101406 67 186 7.0 7.0 0.00 0.00 0.00 46 1009.0
20260507101012 67 198 13.0 13.0 0.00 0.00 0.00 50 1009.0
20260507100611 67 180 6.1 6.1 0.00 0.00 0.00 48 1009.0
20260507100407 67 180 13.0 13.0 0.00 0.00 0.00 47 1009.0
20260507100206 66 210 18.2 19.1 0.00 0.00 0.00 51 1009.0
20260507100020 66 217 5.2 5.2 0.00 0.00 0.00 50 1009.0
20260507095807 65 210 7.8 7.8 0.00 0.00 0.00 48 1009.0
20260507095606 64 236 7.8 7.8 0.00 0.00 0.00 50 1009.0
20260507095406 64 222 7.0 7.0 0.00 0.00 0.00 53 1009.0
20260507095206 63 204 14.8 15.6 0.00 0.00 0.00 53 1009.0
20260507095009 63 204 7.0 7.0 0.00 0.00 0.00 53 1009.0
20260507094807 64 180 20.0 22.6 0.00 0.00 0.00 53 1009.0
20260507094606 64 230 21.7 24.3 0.00 0.00 0.00 52 1009.0
20260507094406 65 216 15.6 16.5 0.00 0.00 0.00 50 1009.0
20260507094206 65 222 13.0 13.0 0.00 0.00 0.00 52 1009.0
20260507093805 65 220 7.8 7.8 0.00 0.00 0.00 52 1009.0
20260507093404 67 292 12.2 12.2 0.00 0.00 0.00 51 1009.0
20260507093207 66 198 12.2 12.2 0.00 0.00 0.00 48 1009.0
20260507093013 66 198 13.0 13.0 0.00 0.00 0.00 48 1009.0
20260507092805 65 174 17.4 19.1 0.00 0.00 0.00 49 1009.0
20260507092606 65 185 15.6 16.5 0.00 0.00 0.00 52 1009.0
20260507092405 64 196 7.0 7.0 0.00 0.00 0.00 48 1009.0
20260507092206 64 180 7.0 7.0 0.00 0.00 0.00 54 1009.0
20260507092016 64 222 17.4 19.1 0.00 0.00 0.00 54 1009.0
20260507091807 63 237 12.2 12.2 0.00 0.00 0.00 56 1009.0
20260507091607 64 258 14.8 15.6 0.00 0.00 0.00 55 1009.0
20260507091405 64 186 12.2 12.2 0.00 0.00 0.00 54 1009.0
20260507091205 65 222 17.4 18.2 0.00 0.00 0.00 51 1009.0
20260507091127 65 162 7.0 7.0 0.00 0.00 0.00 53 1009.0
20260507090810 64 202 6.1 6.1 0.00 0.00 0.00 54 1009.0
20260507090220 62 270 12.2 12.2 0.00 0.00 0.00 58 1009.0
20260507090024 62 173 12.2 12.2 0.00 0.00 0.00 58 1009.0
20260507085817 62 240 7.8 7.8 0.00 0.00 0.00 60 1009.0
20260507085615 62 258 16.5 17.4 0.00 0.00 0.00 60 1009.0
20260507085422 63 180 12.2 12.2 0.00 0.00 0.00 60 1009.0
20260507085241 62 174 7.8 7.8 0.00 0.00 0.00 60 1009.0
20260507085033 62 222 12.2 12.2 0.00 0.00 0.00 62 1009.0
20260507084715 62 228 7.0 7.0 0.00 0.00 0.00 62 1009.0
20260507084406 62 178 7.0 7.0 0.00 0.00 0.00 61 1009.0
20260507084209 62 198 12.2 12.2 0.00 0.00 0.00 61 1009.0
20260507084029 62 210 12.2 12.2 0.00 0.00 0.00 61 1009.0
20260507083853 61 222 19.1 20.9 0.00 0.00 0.00 59 1009.0
20260507083655 61 210 6.1 6.1 0.00 0.00 0.00 62 1009.0
20260507083406 60 210 14.8 15.6 0.00 0.00 0.00 65 1009.0
20260507083210 60 222 6.1 6.1 0.00 0.00 0.00 65 1009.0
20260507083019 60 222 0.0 0.0 0.00 0.00 0.00 64 1009.0
20260507082630 60 168 7.8 7.8 0.00 0.00 0.00 64 1009.0
20260507082211 60 210 5.2 5.2 0.00 0.00 0.00 65 1009.0
20260507081841 60 246 13.9 14.8 0.00 0.00 0.00 64 1009.0
20260507081640 60 196 14.8 15.6 0.00 0.00 0.00 65 1009.0
20260507081427 60 192 12.2 12.2 0.00 0.00 0.00 64 1009.0
20260507081012 60 269 13.9 14.8 0.00 0.00 0.00 66 1009.0
20260507080807 59 210 13.9 14.8 0.00 0.00 0.00 67 1009.0
20260507080625 59 216 12.2 12.2 0.00 0.00 0.00 66 1009.0
20260507080217 59 242 7.8 7.8 0.00 0.00 0.00 67 1009.0
20260507080035 59 258 13.0 13.0 0.00 0.00 0.00 67 1009.0
20260507075843 59 286 12.2 12.2 0.00 0.00 0.00 67 1009.0
20260507075406 58 198 7.0 7.0 0.00 0.00 0.00 69 1009.0
20260507074807 58 168 12.2 12.2 0.00 0.00 0.00 68 1009.0
20260507074606 58 234 7.8 7.8 0.00 0.00 0.00 70 1009.0
20260507074407 58 204 7.0 7.0 0.00 0.00 0.00 70 1009.0
20260507074207 57 236 7.8 7.8 0.00 0.00 0.00 70 1009.0
20260507074011 57 204 7.0 7.0 0.00 0.00 0.00 72 1009.0
20260507073606 57 204 13.0 13.0 0.00 0.00 0.00 70 1009.0
20260507073406 57 222 13.9 14.8 0.00 0.00 0.00 71 1009.0
20260507073207 57 216 12.2 12.2 0.00 0.00 0.00 71 1009.0
20260507073015 57 234 17.4 19.1 0.00 0.00 0.00 69 1009.0
20260507072807 57 234 13.0 13.0 0.00 0.00 0.00 71 1009.0
20260507072606 57 216 18.2 19.1 0.00 0.00 0.00 70 1009.0
20260507072407 57 228 13.0 13.0 0.00 0.00 0.00 71 1009.0
20260507072205 58 230 14.8 15.6 0.00 0.00 0.00 70 1009.0
20260507072011 58 258 20.0 21.7 0.00 0.00 0.00 71 1009.0
20260507071807 58 228 14.8 15.6 0.00 0.00 0.00 69 1009.0
20260507071607 58 162 13.0 14.8 0.00 0.00 0.00 69 1009.0
20260507071407 58 204 13.0 13.0 0.00 0.00 0.00 70 1009.0
20260507071206 58 180 15.6 16.5 0.00 0.00 0.00 70 1009.0
20260507071009 57 216 14.8 15.6 0.00 0.00 0.00 72 1009.0
20260507070607 57 174 14.8 15.6 0.00 0.00 0.00 72 1009.0
20260507070405 56 204 14.8 15.6 0.00 0.00 0.00 71 1009.0
20260507070022 56 174 7.8 7.8 0.00 0.00 0.00 73 1009.0
20260507065805 56 230 7.8 7.8 0.00 0.00 0.00 73 1009.0
20260507065606 56 234 14.8 15.6 0.00 0.00 0.00 74 1009.0
20260507065407 56 204 7.0 7.0 0.00 0.00 0.00 75 1008.0
20260507065207 56 216 12.2 12.2 0.00 0.00 0.00 74 1008.0
20260507065011 56 174 16.5 17.4 0.00 0.00 0.00 75 1008.0
20260507064807 56 236 15.6 16.5 0.00 0.00 0.00 74 1008.0
20260507064606 55 210 7.8 7.8 0.00 0.00 0.00 75 1008.0
20260507064407 55 218 16.5 17.4 0.00 0.00 0.00 74 1008.0
20260507064207 55 198 7.0 7.0 0.00 0.00 0.00 76 1008.0
20260507064011 55 204 14.8 15.6 0.00 0.00 0.00 75 1008.0
20260507063806 55 210 14.8 15.6 0.00 0.00 0.00 75 1008.0
20260507063610 56 216 18.2 19.1 0.00 0.00 0.00 75 1008.0
20260507063407 56 229 12.2 12.2 0.00 0.00 0.00 75 1008.0
20260507063207 56 228 7.8 7.8 0.00 0.00 0.00 76 1008.0
20260507063016 55 204 13.0 13.0 0.00 0.00 0.00 75 1008.0
20260507062806 55 222 14.8 15.6 0.00 0.00 0.00 76 1008.0
20260507062407 55 228 7.8 7.8 0.00 0.00 0.00 77 1008.0
20260507062207 55 186 12.2 12.2 0.00 0.00 0.00 77 1008.0
20260507062012 55 222 7.8 7.8 0.00 0.00 0.00 78 1008.0
20260507061807 55 210 12.2 12.2 0.00 0.00 0.00 78 1008.0
20260507061605 55 230 7.8 7.8 0.00 0.00 0.00 78 1008.0
20260507061407 55 222 13.9 14.8 0.00 0.00 0.00 78 1008.0
20260507061011 55 235 14.8 15.6 0.00 0.00 0.00 79 1008.0
20260507060806 55 240 6.1 6.1 0.00 0.00 0.00 79 1008.0
20260507060407 55 240 12.2 12.2 0.00 0.00 0.00 77 1008.0
20260507060207 55 234 7.0 7.0 0.00 0.00 0.00 78 1008.0
20260507060022 54 234 4.3 4.3 0.00 0.00 0.00 79 1008.0
20260507055806 54 222 12.2 12.2 0.00 0.00 0.00 79 1008.0
20260507055606 54 174 7.0 7.0 0.00 0.00 0.00 79 1008.0
20260507055407 54 198 7.8 7.8 0.00 0.00 0.00 80 1008.0
20260507055207 54 198 7.0 7.0 0.00 0.00 0.00 80 1008.0
20260507055012 54 222 7.8 7.8 0.00 0.00 0.00 80 1008.0
20260507054806 54 204 13.0 13.0 0.00 0.00 0.00 80 1008.0
20260507054606 54 222 5.2 5.2 0.00 0.00 0.00 81 1008.0
20260507054407 53 186 7.8 7.8 0.00 0.00 0.00 81 1008.0
20260507054207 53 192 7.8 7.8 0.00 0.00 0.00 81 1008.0
20260507054011 53 204 12.2 12.2 0.00 0.00 0.00 81 1008.0
20260507053807 53 198 12.2 12.2 0.00 0.00 0.00 81 1008.0
20260507053606 53 186 7.8 7.8 0.00 0.00 0.00 82 1008.0
20260507053406 53 216 7.8 7.8 0.00 0.00 0.00 81 1008.0
20260507053206 53 204 7.8 7.8 0.00 0.00 0.00 82 1008.0
20260507053015 53 186 12.2 12.2 0.00 0.00 0.00 81 1008.0
20260507052806 53 216 13.9 14.8 0.00 0.00 0.00 82 1008.0
20260507052605 53 216 14.8 15.6 0.00 0.00 0.00 82 1008.0
20260507052406 53 204 13.9 14.8 0.00 0.00 0.00 84 1008.0
20260507052207 53 180 12.2 12.2 0.00 0.00 0.00 83 1008.0
20260507052013 53 174 13.9 14.8 0.00 0.00 0.00 83 1008.0
20260507051807 53 204 7.8 7.8 0.00 0.00 0.00 83 1008.0
20260507051606 53 204 7.8 7.8 0.00 0.00 0.00 83 1008.0
20260507051407 53 174 13.9 14.8 0.00 0.00 0.00 83 1008.0
20260507051206 53 198 13.0 13.0 0.00 0.00 0.00 83 1008.0
20260507051011 53 168 13.0 13.0 0.00 0.00 0.00 84 1008.0
20260507050806 53 174 7.0 7.0 0.00 0.00 0.00 83 1008.0
20260507050606 53 298 7.8 7.8 0.00 0.00 0.00 84 1008.0
20260507050407 53 216 14.8 15.6 0.00 0.00 0.00 84 1007.0
20260507050205 53 204 12.2 12.2 0.00 0.00 0.00 83 1007.0
20260507050021 53 180 13.0 13.0 0.00 0.00 0.00 84 1007.0
20260507045806 53 186 7.8 7.8 0.00 0.00 0.00 84 1007.0
20260507045606 53 198 12.2 12.2 0.00 0.00 0.00 84 1007.0
20260507045406 53 192 7.0 7.0 0.00 0.00 0.00 84 1007.0
20260507045207 53 222 12.2 12.2 0.00 0.00 0.00 84 1007.0
20260507044407 53 174 15.6 16.5 0.00 0.00 0.00 83 1007.0
20260507044207 53 168 12.2 12.2 0.00 0.00 0.00 84 1007.0
20260507044011 53 174 12.2 12.2 0.00 0.00 0.00 84 1007.0
20260507043807 53 198 12.2 12.2 0.00 0.00 0.00 84 1007.0
20260507043607 53 186 14.8 15.6 0.00 0.00 0.00 84 1007.0
20260507043407 53 204 12.2 12.2 0.00 0.00 0.00 84 1007.0
20260507043207 53 204 7.8 7.8 0.00 0.00 0.00 84 1007.0
20260507043015 53 186 16.5 17.4 0.00 0.00 0.00 85 1007.0
20260507042807 53 210 7.8 7.8 0.00 0.00 0.00 84 1007.0
20260507042614 53 192 7.8 7.8 0.00 0.00 0.00 85 1007.0
20260507042407 53 204 14.8 15.6 0.00 0.00 0.00 85 1007.0
20260507042206 53 204 7.8 7.8 0.00 0.00 0.00 85 1007.0
20260507042010 53 210 7.0 7.0 0.00 0.00 0.00 86 1007.0
20260507041808 53 198 7.0 7.0 0.00 0.00 0.00 86 1007.0
20260507041606 53 216 6.1 6.1 0.00 0.00 0.00 86 1007.0
20260507041406 53 222 7.8 7.8 0.00 0.00 0.00 86 1007.0
20260507041206 53 228 7.8 7.8 0.00 0.00 0.00 87 1007.0
20260507041011 52 204 6.1 6.1 0.00 0.00 0.00 87 1007.0
20260507040806 52 222 6.1 6.1 0.00 0.00 0.00 88 1007.0
20260507040606 52 228 5.2 5.2 0.00 0.00 0.00 88 1007.0
20260507040407 52 228 12.2 12.2 0.00 0.00 0.00 87 1007.0
20260507040206 52 234 7.0 7.0 0.00 0.00 0.00 88 1007.0
20260507040021 52 234 7.0 7.0 0.00 0.00 0.00 88 1007.0
20260507035806 52 222 7.8 7.8 0.00 0.00 0.00 89 1007.0
20260507035606 52 222 7.0 7.0 0.00 0.00 0.00 89 1007.0
20260507035406 52 216 5.2 5.2 0.00 0.00 0.00 90 1007.0
20260507035010 52 198 7.0 7.0 0.00 0.00 0.00 89 1007.0
20260507034807 52 210 6.1 6.1 0.00 0.00 0.00 90 1007.0
20260507034605 52 222 7.8 7.8 0.00 0.00 0.00 89 1007.0
20260507034406 52 180 6.1 6.1 0.00 0.00 0.00 89 1007.0
20260507034206 52 198 7.8 7.8 0.00 0.00 0.00 89 1007.0
20260507034010 52 168 12.2 12.2 0.00 0.00 0.00 89 1007.0
20260507033806 52 198 7.8 7.8 0.00 0.00 0.00 89 1007.0
20260507033606 52 174 7.8 7.8 0.00 0.00 0.00 89 1007.0
20260507033407 52 216 12.2 12.2 0.00 0.00 0.00 89 1007.0
20260507033206 52 174 13.0 13.0 0.00 0.00 0.00 90 1007.0
20260507033015 53 174 12.2 12.2 0.00 0.00 0.00 90 1007.0
20260507032806 53 168 7.0 7.0 0.00 0.00 0.00 90 1007.0
20260507032606 53 180 7.8 7.8 0.00 0.00 0.00 90 1007.0
20260507032406 53 174 7.8 7.8 0.00 0.00 0.00 90 1006.0
20260507032206 53 174 13.0 13.0 0.00 0.00 0.00 90 1006.0
20260507032012 53 186 4.3 4.3 0.00 0.00 0.00 90 1006.0
20260507031807 53 198 7.0 7.0 0.00 0.00 0.00 90 1006.0
20260507031606 53 198 7.8 7.8 0.00 0.00 0.00 90 1006.0
20260507031407 53 204 7.0 7.0 0.00 0.00 0.00 90 1006.0
20260507031206 53 174 7.0 7.0 0.00 0.00 0.00 90 1006.0
20260507031010 53 216 12.2 12.2 0.00 0.00 0.00 90 1006.0
20260507030806 52 216 15.6 16.5 0.00 0.00 0.00 90 1006.0
20260507030606 52 222 19.1 20.0 0.00 0.00 0.00 90 1006.0
20260507030206 52 222 7.0 7.0 0.00 0.00 0.00 90 1006.0
20260507025806 52 228 13.9 14.8 0.00 0.00 0.00 90 1006.0
20260507025606 52 236 17.4 19.1 0.00 0.00 0.00 90 1006.0
20260507025407 52 240 13.9 14.8 0.00 0.00 0.00 91 1006.0
20260507025206 52 228 12.2 12.2 0.00 0.00 0.00 91 1006.0
20260507025011 52 210 13.9 14.8 0.00 0.00 0.00 91 1006.0
20260507024806 52 228 13.0 13.0 0.00 0.00 0.00 91 1006.0
20260507024605 52 228 20.9 24.3 0.00 0.00 0.00 92 1006.0
20260507024407 52 240 12.2 12.2 0.00 0.00 0.00 92 1006.0
20260507024010 52 228 14.8 15.6 0.00 0.00 0.00 92 1006.0
20260507023806 52 222 13.9 14.8 0.00 0.00 0.00 92 1006.0
20260507023606 52 222 12.2 12.2 0.00 0.00 0.00 92 1006.0
20260507023206 52 228 13.0 14.8 0.00 0.00 0.00 92 1006.0
20260507023013 52 228 12.2 12.2 0.00 0.00 0.00 92 1006.0
20260507022806 52 228 12.2 12.2 0.00 0.00 0.00 92 1006.0
20260507022407 51 234 7.8 7.8 0.00 0.00 0.00 92 1006.0
20260507022206 51 204 17.4 18.2 0.00 0.00 0.00 92 1006.0
20260507022009 51 240 17.4 19.1 0.00 0.00 0.00 92 1006.0
20260507021806 51 228 14.8 15.6 0.00 0.00 0.00 92 1006.0
20260507021606 51 228 14.8 15.6 0.00 0.00 0.00 93 1006.0
20260507021407 51 204 12.2 12.2 0.00 0.00 0.00 94 1006.0
20260507021206 51 228 13.9 14.8 0.00 0.00 0.00 94 1006.0
20260507020806 50 204 12.2 12.2 0.00 0.00 0.00 94 1006.0
20260507020606 50 210 12.2 12.2 0.00 0.00 0.00 94 1006.0
20260507020407 51 216 12.2 12.2 0.00 0.00 0.00 93 1006.0
20260507020206 51 186 7.0 7.0 0.00 0.00 0.00 93 1006.0
20260507020021 51 180 7.0 7.0 0.00 0.00 0.00 93 1006.0
20260507015807 51 180 7.8 7.8 0.00 0.00 0.00 93 1006.0
20260507015407 51 174 7.8 7.8 0.00 0.00 0.00 93 1006.0
20260507015206 51 180 7.0 7.0 0.00 0.00 0.00 93 1006.0
20260507015010 51 180 7.0 7.0 0.00 0.00 0.00 93 1006.0
20260507014806 51 180 7.0 7.0 0.00 0.00 0.00 93 1006.0
20260507014606 51 186 6.1 6.1 0.00 0.00 0.00 93 1006.0
20260507014407 51 186 5.2 5.2 0.00 0.00 0.00 94 1006.0
20260507014207 50 186 7.0 7.0 0.00 0.00 0.00 94 1006.0
20260507014011 50 192 5.2 5.2 0.00 0.00 0.00 94 1006.0
20260507013805 50 192 7.0 7.0 0.00 0.00 0.00 94 1006.0
20260507013606 50 192 7.0 7.0 0.00 0.00 0.00 94 1006.0
20260507013406 50 234 0.0 0.0 0.00 0.00 0.00 94 1006.0
20260507013206 50 234 0.0 0.0 0.00 0.00 0.00 93 1006.0
20260507013013 51 234 0.0 0.0 0.00 0.00 0.00 93 1006.0
20260507012805 51 234 0.0 0.0 0.00 0.00 0.00 93 1006.0
20260507012606 51 234 0.0 0.0 0.00 0.00 0.00 93 1006.0
20260507012406 51 234 0.0 0.0 0.00 0.00 0.00 93 1006.0
20260507012206 51 234 0.0 0.0 0.00 0.00 0.00 92 1006.0
20260507012011 51 234 0.0 0.0 0.00 0.00 0.00 92 1006.0
20260507011807 51 234 0.0 0.0 0.00 0.00 0.00 91 1006.0
20260507011607 51 234 4.3 4.3 0.00 0.00 0.00 91 1006.0
20260507011406 52 234 0.0 0.0 0.00 0.00 0.00 91 1005.0
20260507011206 52 234 0.0 0.0 0.00 0.00 0.00 90 1005.0
20260507011010 52 234 0.0 0.0 0.00 0.00 0.00 90 1005.0
20260507010607 52 234 0.0 0.0 0.00 0.00 0.00 90 1005.0
20260507010407 52 234 5.2 5.2 0.00 0.00 0.00 89 1005.0
20260507010206 52 234 6.1 6.1 0.00 0.00 0.00 90 1005.0
20260507010019 53 234 5.2 5.2 0.00 0.00 0.00 89 1005.0
20260507005807 53 234 6.1 6.1 0.00 0.00 0.00 89 1005.0
20260507005606 53 234 4.3 4.3 0.00 0.00 0.00 89 1005.0
20260507005206 53 234 4.3 4.3 0.00 0.00 0.00 89 1005.0
20260507005010 53 234 0.0 0.0 0.00 0.00 0.00 89 1005.0
20260507004605 53 234 7.8 7.8 0.00 0.00 0.00 88 1005.0
20260507004406 53 234 0.0 0.0 0.00 0.00 0.00 88 1005.0
20260507004207 53 234 7.0 7.0 0.00 0.00 0.00 88 1005.0
20260507003806 53 228 7.8 7.8 0.00 0.00 0.00 87 1005.0
20260507003605 53 228 12.2 12.2 0.00 0.00 0.00 87 1005.0
20260507003406 53 222 13.0 13.0 0.00 0.00 0.00 87 1005.0
20260507003207 53 222 7.8 7.8 0.00 0.00 0.00 87 1005.0
20260507003014 53 228 7.0 7.0 0.00 0.00 0.00 87 1005.0
20260507002607 53 186 5.2 5.2 0.00 0.00 0.00 87 1005.0
20260507002406 53 186 7.0 7.0 0.00 0.00 0.00 87 1005.0
20260507002011 53 204 6.1 6.1 0.00 0.00 0.00 87 1005.0
20260507001807 53 204 7.0 7.0 0.00 0.00 0.00 86 1005.0
20260507001607 53 204 7.0 7.0 0.00 0.00 0.00 86 1005.0
20260507001406 53 186 5.2 5.2 0.00 0.00 0.00 86 1005.0
20260507001207 53 186 7.0 7.0 0.00 0.00 0.00 85 1005.0
20260507001012 53 222 6.1 6.1 0.00 0.00 0.00 85 1005.0
20260507000806 53 216 5.2 5.2 0.00 0.00 0.00 85 1005.0
20260507000607 52 192 7.8 7.8 0.00 0.00 0.00 85 1005.0
20260507000406 52 258 7.0 7.0 0.00 0.00 0.00 86 1005.0
20260507000207 52 270 7.8 7.8 0.00 0.00 0.00 86 1005.0
20260507000017 52 294 6.1 6.1 0.00 0.00 0.00 86 1005.0
20260506235806 52 306 5.2 5.2 0.00 0.00 0.00 86 1005.0
20260506235606 52 258 6.1 6.1 0.00 0.00 0.00 86 1005.0
20260506235406 53 258 5.2 5.2 0.00 0.00 0.00 85 1005.0
20260506235206 53 258 0.0 0.0 0.00 0.00 0.00 85 1005.0
20260506234607 53 258 5.2 5.2 0.00 0.00 0.00 84 1005.0
20260506234407 53 258 4.3 4.3 0.00 0.00 0.00 84 1005.0
20260506234206 53 246 6.1 6.1 0.00 0.00 0.00 83 1005.0
20260506233806 54 241 5.2 5.2 0.00 0.00 0.00 83 1005.0
20260506233606 54 240 4.3 4.3 0.00 0.00 0.00 82 1005.0
20260506233407 54 240 0.0 0.0 0.00 0.00 0.00 82 1005.0
20260506233206 54 240 7.8 7.8 0.00 0.00 0.00 82 1005.0
20260506233014 54 240 7.0 7.0 0.00 0.00 0.00 81 1005.0
20260506232806 54 228 6.1 6.1 0.00 0.00 0.00 82 1005.0
20260506232606 55 222 7.8 7.8 0.00 0.00 0.00 81 1005.0
20260506232407 55 216 13.0 13.0 0.00 0.00 0.00 81 1005.0
20260506232207 55 240 13.0 13.0 0.00 0.00 0.00 81 1005.0
20260506232010 55 276 7.8 7.8 0.00 0.00 0.00 81 1005.0
20260506231806 55 222 12.2 12.2 0.00 0.00 0.00 81 1005.0
20260506231606 55 240 12.2 12.2 0.00 0.00 0.00 80 1005.0
20260506231406 55 198 7.8 7.8 0.00 0.00 0.00 80 1005.0
20260506231206 54 264 13.0 13.0 0.00 0.00 0.00 81 1005.0
20260506230807 54 216 13.0 14.8 0.00 0.00 0.00 83 1005.0
20260506230406 54 204 7.8 7.8 0.00 0.00 0.00 84 1004.0
20260506230206 54 228 13.9 14.8 0.00 0.00 0.00 83 1004.0
20260506230017 54 222 12.2 12.2 0.00 0.00 0.00 84 1004.0
20260506225605 54 230 7.0 7.0 0.00 0.00 0.00 83 1004.0
20260506225407 55 230 5.2 5.2 0.00 0.00 0.00 83 1004.0
20260506225206 55 230 7.0 7.0 0.00 0.00 0.00 83 1004.0
20260506225010 55 234 7.0 7.0 0.00 0.00 0.00 82 1004.0
20260506223806 55 276 12.2 12.2 0.00 0.00 0.00 80 1004.0
20260506223606 55 281 12.2 12.2 0.00 0.00 0.00 80 1004.0
20260506223407 55 280 7.8 7.8 0.00 0.00 0.00 80 1003.0
20260506223207 56 288 7.8 7.8 0.00 0.00 0.00 79 1003.0
20260506223014 56 274 7.8 7.8 0.00 0.00 0.00 79 1004.0
20260506222806 56 276 7.8 7.8 0.00 0.00 0.00 78 1004.0
20260506222407 57 294 12.2 12.2 0.00 0.00 0.00 77 1004.0
20260506222206 57 264 13.9 14.8 0.00 0.00 0.00 77 1004.0
20260506222011 57 262 13.0 13.0 0.00 0.00 0.00 77 1003.0
20260506221605 57 288 19.1 21.7 0.00 0.00 0.00 76 1003.0
20260506221407 58 286 19.1 20.9 0.00 0.00 0.00 77 1004.0
20260506221011 57 270 12.2 12.2 0.00 0.00 0.00 77 1003.0
20260506220806 57 288 17.4 19.1 0.00 0.00 0.00 77 1003.0
20260506220606 57 246 19.1 20.9 0.00 0.00 0.00 77 1003.0
20260506220407 57 262 20.0 22.6 0.00 0.00 0.00 77 1003.0
20260506220020 58 274 25.2 26.1 0.00 0.00 0.00 76 1003.0
20260506215806 58 291 16.5 17.4 0.00 0.00 0.00 76 1003.0
20260506215611 58 234 16.5 17.4 0.00 0.00 0.00 77 1003.0
20260506215406 58 300 15.6 16.5 0.00 0.00 0.00 77 1003.0
20260506215206 58 279 17.4 19.1 0.00 0.00 0.00 77 1003.0
20260506215008 58 236 7.0 7.0 0.00 0.00 0.00 77 1003.0
20260506214606 58 222 0.0 0.0 0.00 0.00 0.00 76 1003.0
20260506214407 58 216 12.2 12.2 0.00 0.00 0.00 76 1003.0
20260506214206 58 198 14.8 15.6 0.00 0.00 0.00 75 1003.0
20260506214010 59 228 15.6 16.5 0.00 0.00 0.00 75 1003.0
20260506213806 59 230 7.8 7.8 0.00 0.00 0.00 74 1003.0
20260506213606 59 230 12.2 12.2 0.00 0.00 0.00 74 1003.0
20260506213407 59 240 7.8 7.8 0.00 0.00 0.00 73 1003.0
20260506213207 59 222 17.4 19.1 0.00 0.00 0.00 72 1003.0
20260506213015 59 210 13.9 15.6 0.00 0.00 0.00 71 1003.0
20260506212807 59 246 20.9 22.6 0.00 0.00 0.00 71 1003.0
20260506212605 59 204 15.6 16.5 0.00 0.00 0.00 71 1003.0
20260506212406 59 186 27.8 29.5 0.00 0.00 0.00 70 1003.0
20260506212205 59 216 13.9 15.6 0.00 0.00 0.00 69 1003.0
20260506212011 59 216 14.8 15.6 0.00 0.00 0.00 68 1003.0
20260506211806 59 162 13.0 14.8 0.00 0.00 0.00 68 1003.0
20260506211606 58 174 7.8 7.8 0.00 0.00 0.00 68 1003.0
20260506211411 58 174 14.8 15.6 0.00 0.00 0.00 69 1003.0
20260506211206 58 186 16.5 17.4 0.00 0.00 0.00 70 1003.0
20260506211010 58 186 4.3 4.3 0.00 0.00 0.00 70 1002.0
20260506210805 58 168 7.0 7.0 0.00 0.00 0.00 70 1002.0
20260506210605 58 180 7.8 7.8 0.00 0.00 0.00 70 1002.0
20260506210207 58 186 0.0 0.0 0.00 0.00 0.00 70 1002.0
20260506210018 58 174 7.8 7.8 0.00 0.00 0.00 71 1002.0
20260506205806 59 174 7.0 7.0 0.00 0.00 0.00 70 1002.0
20260506205406 60 174 4.3 4.3 0.00 0.00 0.00 68 1002.0
20260506205206 60 174 7.0 7.0 0.00 0.00 0.00 68 1002.0
20260506205011 60 132 5.2 5.2 0.00 0.00 0.00 68 1002.0
20260506204806 60 132 0.0 0.0 0.00 0.00 0.00 67 1002.0
20260506204407 61 132 0.0 0.0 0.00 0.00 0.00 67 1002.0
20260506204206 61 132 0.0 0.0 0.00 0.00 0.00 67 1002.0
20260506203806 61 132 0.0 0.0 0.00 0.00 0.00 66 1002.0
20260506203607 61 132 0.0 0.0 0.00 0.00 0.00 66 1002.0
20260506203407 61 185 0.0 0.0 0.00 0.00 0.00 66 1002.0
20260506203207 61 186 0.0 0.0 0.00 0.00 0.00 66 1002.0
20260506203015 61 186 4.3 4.3 0.00 0.00 0.00 66 1002.0
20260506202807 61 186 0.0 0.0 0.00 0.00 0.00 66 1002.0
20260506202606 61 186 0.0 0.0 0.00 0.00 0.00 66 1002.0
20260506202406 61 192 0.0 0.0 0.00 0.00 0.00 65 1002.0
20260506202206 61 192 0.0 0.0 0.00 0.00 0.00 65 1002.0
20260506202011 61 174 0.0 0.0 0.00 0.00 0.00 65 1002.0
20260506201806 61 174 0.0 0.0 0.00 0.00 0.00 65 1002.0
20260506201406 62 180 0.0 0.0 0.00 0.00 0.00 65 1002.0
20260506201206 62 180 0.0 0.0 0.00 0.00 0.00 65 1002.0
20260506201011 62 185 0.0 0.0 0.00 0.00 0.00 65 1002.0
20260506200806 62 185 0.0 0.0 0.00 0.00 0.00 65 1002.0
20260506200606 62 185 0.0 0.0 0.00 0.00 0.00 64 1002.0
20260506200407 62 180 0.0 0.0 0.00 0.00 0.00 64 1002.0
20260506200207 62 180 0.0 0.0 0.00 0.00 0.00 64 1002.0
20260506200017 62 186 0.0 0.0 0.00 0.00 0.00 64 1002.0
20260506195610 62 186 0.0 0.0 0.00 0.00 0.00 63 1002.0
20260506195407 62 180 0.0 0.0 0.00 0.00 0.00 63 1002.0
20260506195208 62 186 0.0 0.0 0.00 0.00 0.00 63 1002.0
20260506195011 63 186 0.0 0.0 0.00 0.00 0.00 63 1002.0
20260506194807 63 186 0.0 0.0 0.00 0.00 0.00 62 1002.0
20260506194607 63 180 0.0 0.0 0.00 0.00 0.00 62 1002.0
20260506194407 63 162 4.3 4.3 0.00 0.00 0.00 62 1002.0
20260506194206 63 126 0.0 0.0 0.00 0.00 0.00 62 1002.0
20260506194012 63 126 0.0 0.0 0.00 0.00 0.00 61 1002.0
20260506193405 63 174 0.0 0.0 0.00 0.00 0.00 61 1002.0
20260506193207 63 174 0.0 0.0 0.00 0.00 0.00 61 1002.0
20260506193011 64 61 0.0 0.0 0.00 0.00 0.00 60 1002.0
20260506192805 64 48 7.8 7.8 0.00 0.00 0.00 61 1002.0
20260506192607 64 186 0.0 0.0 0.00 0.00 0.00 60 1002.0
20260506192205 64 72 0.0 0.0 0.00 0.00 0.00 60 1002.0
20260506191807 64 138 4.3 4.3 0.00 0.00 0.00 60 1002.0
20260506191607 64 186 6.1 6.1 0.00 0.00 0.00 60 1002.0
20260506191405 64 162 0.0 0.0 0.00 0.00 0.00 59 1002.0
20260506191207 64 180 0.0 0.0 0.00 0.00 0.00 59 1002.0
20260506191012 64 162 0.0 0.0 0.00 0.00 0.00 59 1001.0
20260506190807 64 216 4.3 4.3 0.00 0.00 0.00 59 1001.0
20260506190407 64 132 0.0 0.0 0.00 0.00 0.00 58 1002.0
20260506190206 64 180 0.0 0.0 0.00 0.00 0.00 58 1002.0
20260506190019 64 204 7.0 7.0 0.00 0.00 0.00 58 1002.0
20260506185807 64 192 0.0 0.0 0.00 0.00 0.00 58 1002.0